Time,TemperatureF,DewpointF,PressureIn,WindDirection,WindDirectionDegrees,WindSpeedMPH,WindSpeedGustMPH,Humidity,HourlyPrecipIn,Conditions,Clouds,dailyrainin,SoftwareType,DateUTC
2013-05-03 00:03:00,80.0,-99.9,29.91,SE,125,6.0,9.0,-999,-99.99,,,-99.99,,2013-05-03 04:03:00,
2013-05-03 00:13:00,79.0,-99.9,29.90,SE,127,8.0,9.0,-999,-99.99,,,-99.99,,2013-05-03 04:13:00,
2013-05-03 00:23:00,79.0,-99.9,29.89,SSE,164,8.0,9.0,-999,-99.99,,,-99.99,,2013-05-03 04:23:00,
2013-05-03 00:33:00,79.0,-99.9,29.89,SSE,159,7.0,9.0,-999,-99.99,,,-99.99,,2013-05-03 04:33:00,
2013-05-03 00:43:00,79.0,-99.9,29.88,SSE,159,6.0,8.0,-999,-99.99,,,-99.99,,2013-05-03 04:43:00,
2013-05-03 00:53:00,79.0,-99.9,29.88,South,169,5.0,7.0,-999,-99.99,,,-99.99,,2013-05-03 04:53:00,
2013-05-03 01:03:00,79.0,-99.9,29.88,SSE,166,6.0,8.0,-999,-99.99,,,-99.99,,2013-05-03 05:03:00,
2013-05-03 01:12:00,78.0,-99.9,29.87,SSE,150,8.0,9.0,-999,-99.99,,,-99.99,,2013-05-03 05:12:00,
2013-05-03 01:22:00,78.0,-99.9,29.87,South,169,5.0,7.0,-999,-99.99,,,-99.99,,2013-05-03 05:22:00,
2013-05-03 01:32:00,78.0,-99.9,29.87,SSE,149,5.0,6.0,-999,-99.99,,,-99.99,,2013-05-03 05:32:00,
2013-05-03 01:42:00,79.0,-99.9,29.86,SSE,157,5.0,6.0,-999,-99.99,,,-99.99,,2013-05-03 05:42:00,
2013-05-03 01:52:00,78.0,-99.9,29.86,SSE,153,5.0,7.0,-999,-99.99,,,-99.99,,2013-05-03 05:52:00,
2013-05-03 02:02:00,78.0,-99.9,29.86,SSE,156,5.0,6.0,-999,-99.99,,,-99.99,,2013-05-03 06:02:00,
2013-05-03 02:12:00,78.0,-99.9,29.85,SSE,155,5.0,6.0,-999,-99.99,,,-99.99,,2013-05-03 06:12:00,
2013-05-03 02:22:00,78.0,-99.9,29.85,SSE,167,4.0,7.0,-999,-99.99,,,-99.99,,2013-05-03 06:22:00,
2013-05-03 02:32:00,78.0,-99.9,29.85,SE,143,7.0,8.0,-999,-99.99,,,-99.99,,2013-05-03 06:32:00,
2013-05-03 02:42:00,78.0,-99.9,29.85,SE,144,6.0,8.0,-999,-99.99,,,-99.99,,2013-05-03 06:42:00,
2013-05-03 02:52:00,78.0,-99.9,29.85,SE,140,5.0,7.0,-999,-99.99,,,-99.99,,2013-05-03 06:52:00,
2013-05-03 03:02:00,78.0,-99.9,29.84,SSE,149,5.0,6.0,-999,-99.99,,,-99.99,,2013-05-03 07:02:00,
2013-05-03 03:11:00,78.0,-99.9,29.84,South,172,4.0,5.0,-999,-99.99,,,-99.99,,2013-05-03 07:11:00,
2013-05-03 03:22:00,78.0,-99.9,29.84,South,174,4.0,6.0,-999,-99.99,,,-99.99,,2013-05-03 07:22:00,
2013-05-03 03:32:00,78.0,-99.9,29.83,SSE,167,5.0,6.0,-999,-99.99,,,-99.99,,2013-05-03 07:32:00,
2013-05-03 03:42:00,78.0,-99.9,29.83,South,177,5.0,6.0,-999,-99.99,,,-99.99,,2013-05-03 07:42:00,
2013-05-03 03:52:00,78.0,-99.9,29.83,SSE,163,4.0,6.0,-999,-99.99,,,-99.99,,2013-05-03 07:52:00,
2013-05-03 04:02:00,78.0,-99.9,29.83,SE,137,4.0,7.0,-999,-99.99,,,-99.99,,2013-05-03 08:02:00,
2013-05-03 04:12:00,78.0,-99.9,29.83,SE,141,4.0,6.0,-999,-99.99,,,-99.99,,2013-05-03 08:12:00,
2013-05-03 04:22:00,78.0,-99.9,29.83,SE,126,4.0,5.0,-999,-99.99,,,-99.99,,2013-05-03 08:22:00,
2013-05-03 04:32:00,78.0,-99.9,29.83,SE,140,4.0,6.0,-999,-99.99,,,-99.99,,2013-05-03 08:32:00,
2013-05-03 04:42:00,78.0,-99.9,29.83,SE,124,5.0,7.0,-999,-99.99,,,-99.99,,2013-05-03 08:42:00,
2013-05-03 04:53:00,78.0,-99.9,29.83,SE,127,4.0,6.0,-999,-99.99,,,-99.99,,2013-05-03 08:53:00,
2013-05-03 05:01:00,78.0,-99.9,29.83,East,100,4.0,5.0,-999,-99.99,,,-99.99,,2013-05-03 09:01:00,
2013-05-03 05:12:00,78.0,-99.9,29.83,ESE,122,4.0,5.0,-999,-99.99,,,-99.99,,2013-05-03 09:12:00,
2013-05-03 05:21:00,78.0,-99.9,29.83,ESE,118,5.0,6.0,-999,-99.99,,,-99.99,,2013-05-03 09:21:00,
2013-05-03 05:33:00,78.0,-99.9,29.83,ESE,123,5.0,6.0,-999,-99.99,,,-99.99,,2013-05-03 09:33:00,
2013-05-03 05:42:00,78.0,-99.9,29.83,ESE,117,5.0,6.0,-999,-99.99,,,-99.99,,2013-05-03 09:42:00,
2013-05-03 05:53:00,78.0,-99.9,29.83,SE,127,4.0,6.0,-999,-99.99,,,-99.99,,2013-05-03 09:53:00,
2013-05-03 06:03:00,78.0,-99.9,29.83,SE,128,4.0,5.0,-999,-99.99,,,-99.99,,2013-05-03 10:03:00,
2013-05-03 06:13:00,78.0,-99.9,29.83,SE,127,5.0,7.0,-999,-99.99,,,-99.99,,2013-05-03 10:13:00,
2013-05-03 06:22:00,78.0,-99.9,29.83,ESE,120,6.0,8.0,-999,-99.99,,,-99.99,,2013-05-03 10:22:00,
2013-05-03 06:32:00,78.0,-99.9,29.83,ESE,121,7.0,8.0,-999,-99.99,,,-99.99,,2013-05-03 10:32:00,
2013-05-03 06:42:00,78.0,-99.9,29.83,SE,137,6.0,7.0,-999,-99.99,,,-99.99,,2013-05-03 10:42:00,
2013-05-03 06:52:00,78.0,-99.9,29.83,SE,133,6.0,8.0,-999,-99.99,,,-99.99,,2013-05-03 10:52:00,
2013-05-03 07:02:00,78.0,-99.9,29.84,SE,136,6.0,7.0,-999,-99.99,,,-99.99,,2013-05-03 11:02:00,
2013-05-03 07:11:00,78.0,-99.9,29.84,SE,131,7.0,8.0,-999,-99.99,,,-99.99,,2013-05-03 11:11:00,
2013-05-03 07:22:00,78.0,-99.9,29.84,SE,133,6.0,9.0,-999,-99.99,,,-99.99,,2013-05-03 11:22:00,
2013-05-03 07:32:00,78.0,-99.9,29.85,SE,124,6.0,7.0,-999,-99.99,,,-99.99,,2013-05-03 11:32:00,
2013-05-03 07:42:00,78.0,-99.9,29.85,SE,129,5.0,6.0,-999,-99.99,,,-99.99,,2013-05-03 11:42:00,
2013-05-03 07:52:00,78.0,-99.9,29.85,ESE,113,5.0,6.0,-999,-99.99,,,-99.99,,2013-05-03 11:52:00,
2013-05-03 08:02:00,79.0,-99.9,29.85,SE,125,4.0,5.0,-999,-99.99,,,-99.99,,2013-05-03 12:02:00,
2013-05-03 08:12:00,79.0,-99.9,29.85,SE,132,4.0,6.0,-999,-99.99,,,-99.99,,2013-05-03 12:12:00,
2013-05-03 08:22:00,80.0,-99.9,29.86,SE,145,4.0,6.0,-999,-99.99,,,-99.99,,2013-05-03 12:22:00,
2013-05-03 08:32:00,80.0,-99.9,29.86,SE,138,4.0,6.0,-999,-99.99,,,-99.99,,2013-05-03 12:32:00,
2013-05-03 08:42:00,80.0,-99.9,29.85,SE,129,4.0,6.0,-999,-99.99,,,-99.99,,2013-05-03 12:42:00,
2013-05-03 08:52:00,81.0,-99.9,29.86,SE,133,4.0,5.0,-999,-99.99,,,-99.99,,2013-05-03 12:52:00,
2013-05-03 09:01:00,81.0,-99.9,29.86,SE,124,3.0,4.0,-999,-99.99,,,-99.99,,2013-05-03 13:01:00,
2013-05-03 09:11:00,82.0,-99.9,29.86,SE,124,4.0,4.0,-999,-99.99,,,-99.99,,2013-05-03 13:11:00,
2013-05-03 09:22:00,82.0,-99.9,29.86,SE,125,3.0,4.0,-999,-99.99,,,-99.99,,2013-05-03 13:22:00,
2013-05-03 09:32:00,82.0,-99.9,29.86,ESE,118,4.0,4.0,-999,-99.99,,,-99.99,,2013-05-03 13:32:00,
2013-05-03 09:42:00,82.0,-99.9,29.86,East,97,4.0,5.0,-999,-99.99,,,-99.99,,2013-05-03 13:42:00,
2013-05-03 09:52:00,83.0,-99.9,29.87,ESE,103,4.0,4.0,-999,-99.99,,,-99.99,,2013-05-03 13:52:00,
2013-05-03 10:02:00,83.0,-99.9,29.87,ESE,104,2.0,4.0,-999,-99.99,,,-99.99,,2013-05-03 14:02:00,
2013-05-03 10:11:00,84.0,-99.9,29.88,ENE,57,3.0,5.0,-999,-99.99,,,-99.99,,2013-05-03 14:11:00,
2013-05-03 10:22:00,84.0,-99.9,29.88,NNE,31,4.0,8.0,-999,-99.99,,,-99.99,,2013-05-03 14:22:00,
2013-05-03 10:32:00,83.0,-99.9,29.88,NE,42,6.0,9.0,-999,-99.99,,,-99.99,,2013-05-03 14:32:00,
2013-05-03 10:42:00,83.0,-99.9,29.88,NNE,32,6.0,9.0,-999,-99.99,,,-99.99,,2013-05-03 14:42:00,
2013-05-03 10:52:00,82.0,-99.9,29.88,ENE,62,6.0,9.0,-999,-99.99,,,-99.99,,2013-05-03 14:52:00,
2013-05-03 11:01:00,82.0,-99.9,29.88,ENE,68,4.0,7.0,-999,-99.99,,,-99.99,,2013-05-03 15:01:00,
2013-05-03 11:11:00,82.0,-99.9,29.88,ENE,69,7.0,8.0,-999,-99.99,,,-99.99,,2013-05-03 15:11:00,
2013-05-03 11:22:00,83.0,-99.9,29.87,NE,47,5.0,9.0,-999,-99.99,,,-99.99,,2013-05-03 15:22:00,
2013-05-03 11:32:00,83.0,-99.9,29.87,ENE,63,6.0,8.0,-999,-99.99,,,-99.99,,2013-05-03 15:32:00,
2013-05-03 11:43:00,84.0,-99.9,29.88,NE,36,6.0,9.0,-999,-99.99,,,-99.99,,2013-05-03 15:43:00,
2013-05-03 11:53:00,83.0,-99.9,29.87,NE,38,8.0,11.0,-999,-99.99,,,-99.99,,2013-05-03 15:53:00,
2013-05-03 12:03:00,83.0,-99.9,29.87,NE,35,8.0,12.0,-999,-99.99,,,-99.99,,2013-05-03 16:03:00,
2013-05-03 12:13:00,84.0,-99.9,29.87,NNE,29,6.0,13.0,-999,-99.99,,,-99.99,,2013-05-03 16:13:00,
2013-05-03 12:23:00,84.0,-99.9,29.86,NE,43,10.0,14.0,-999,-99.99,,,-99.99,,2013-05-03 16:23:00,
2013-05-03 12:33:00,84.0,-99.9,29.86,NE,40,8.0,13.0,-999,-99.99,,,-99.99,,2013-05-03 16:33:00,
2013-05-03 12:42:00,84.0,-99.9,29.86,NE,36,8.0,11.0,-999,-99.99,,,-99.99,,2013-05-03 16:42:00,
2013-05-03 12:52:00,85.0,-99.9,29.86,North,8,5.0,11.0,-999,-99.99,,,-99.99,,2013-05-03 16:52:00,
2013-05-03 13:02:00,84.0,-99.9,29.86,NE,56,6.0,10.0,-999,-99.99,,,-99.99,,2013-05-03 17:02:00,
2013-05-03 13:12:00,83.0,-99.9,29.86,NE,49,7.0,11.0,-999,-99.99,,,-99.99,,2013-05-03 17:12:00,
2013-05-03 13:23:00,83.0,-99.9,29.85,NE,49,8.0,10.0,-999,-99.99,,,-99.99,,2013-05-03 17:23:00,
2013-05-03 13:32:00,84.0,-99.9,29.85,NNE,16,7.0,10.0,-999,-99.99,,,-99.99,,2013-05-03 17:32:00,
2013-05-03 13:42:00,83.0,-99.9,29.85,NE,38,8.0,11.0,-999,-99.99,,,-99.99,,2013-05-03 17:42:00,
2013-05-03 13:52:00,83.0,-99.9,29.85,ENE,66,7.0,11.0,-999,-99.99,,,-99.99,,2013-05-03 17:52:00,
2013-05-03 14:01:00,83.0,-99.9,29.84,NE,55,6.0,13.0,-999,-99.99,,,-99.99,,2013-05-03 18:01:00,
2013-05-03 14:12:00,83.0,-99.9,29.84,NE,56,8.0,10.0,-999,-99.99,,,-99.99,,2013-05-03 18:12:00,
2013-05-03 14:22:00,83.0,-99.9,29.84,ENE,65,9.0,12.0,-999,-99.99,,,-99.99,,2013-05-03 18:22:00,
2013-05-03 14:32:00,83.0,-99.9,29.83,ENE,62,9.0,11.0,-999,-99.99,,,-99.99,,2013-05-03 18:32:00,
2013-05-03 14:42:00,84.0,-99.9,29.83,NNE,12,6.0,11.0,-999,-99.99,,,-99.99,,2013-05-03 18:42:00,
2013-05-03 14:52:00,84.0,-99.9,29.83,North,354,6.0,10.0,-999,-99.99,,,-99.99,,2013-05-03 18:52:00,
2013-05-03 15:01:00,85.0,-99.9,29.83,NE,38,3.0,9.0,-999,-99.99,,,-99.99,,2013-05-03 19:01:00,
2013-05-03 15:11:00,85.0,-99.9,29.82,NNE,13,6.0,10.0,-999,-99.99,,,-99.99,,2013-05-03 19:11:00,
2013-05-03 15:22:00,84.0,-99.9,29.82,North,8,9.0,11.0,-999,-99.99,,,-99.99,,2013-05-03 19:22:00,
2013-05-03 15:32:00,84.0,-99.9,29.82,NE,52,9.0,11.0,-999,-99.99,,,-99.99,,2013-05-03 19:32:00,
2013-05-03 15:42:00,84.0,-99.9,29.82,NE,38,6.0,11.0,-999,-99.99,,,-99.99,,2013-05-03 19:42:00,
2013-05-03 15:52:00,84.0,-99.9,29.81,NE,36,5.0,9.0,-999,-99.99,,,-99.99,,2013-05-03 19:52:00,
2013-05-03 16:02:00,84.0,-99.9,29.81,NE,34,7.0,10.0,-999,-99.99,,,-99.99,,2013-05-03 20:02:00,
2013-05-03 16:12:00,85.0,-99.9,29.81,North,7,5.0,8.0,-999,-99.99,,,-99.99,,2013-05-03 20:12:00,
2013-05-03 16:22:00,85.0,-99.9,29.81,NNE,12,4.0,9.0,-999,-99.99,,,-99.99,,2013-05-03 20:22:00,
2013-05-03 16:32:00,85.0,-99.9,29.81,NNE,18,4.0,9.0,-999,-99.99,,,-99.99,,2013-05-03 20:32:00,
2013-05-03 16:42:00,85.0,-99.9,29.81,North,7,5.0,8.0,-999,-99.99,,,-99.99,,2013-05-03 20:42:00,
2013-05-03 16:52:00,85.0,-99.9,29.81,NE,34,6.0,9.0,-999,-99.99,,,-99.99,,2013-05-03 20:52:00,
2013-05-03 17:02:00,84.0,-99.9,29.81,NE,41,6.0,8.0,-999,-99.99,,,-99.99,,2013-05-03 21:02:00,
2013-05-03 17:11:00,84.0,-99.9,29.81,NNE,31,5.0,9.0,-999,-99.99,,,-99.99,,2013-05-03 21:11:00,
2013-05-03 17:22:00,84.0,-99.9,29.82,North,353,3.0,6.0,-999,-99.99,,,-99.99,,2013-05-03 21:22:00,
2013-05-03 17:33:00,84.0,-99.9,29.81,NNE,12,4.0,6.0,-999,-99.99,,,-99.99,,2013-05-03 21:33:00,
2013-05-03 17:43:00,84.0,-99.9,29.82,NNW,332,2.0,6.0,-999,-99.99,,,-99.99,,2013-05-03 21:43:00,
2013-05-03 17:53:00,83.0,-99.9,29.82,NNW,328,3.0,8.0,-999,-99.99,,,-99.99,,2013-05-03 21:53:00,
2013-05-03 18:03:00,83.0,-99.9,29.82,NW,316,2.0,7.0,-999,-99.99,,,-99.99,,2013-05-03 22:03:00,
2013-05-03 18:13:00,83.0,-99.9,29.83,NW,311,3.0,7.0,-999,-99.99,,,-99.99,,2013-05-03 22:13:00,
2013-05-03 18:22:00,82.0,-99.9,29.83,NNW,339,3.0,5.0,-999,-99.99,,,-99.99,,2013-05-03 22:22:00,
2013-05-03 18:32:00,82.0,-99.9,29.83,NW,313,3.0,5.0,-999,-99.99,,,-99.99,,2013-05-03 22:32:00,
2013-05-03 18:42:00,82.0,-99.9,29.83,NW,310,2.0,5.0,-999,-99.99,,,-99.99,,2013-05-03 22:42:00,
2013-05-03 18:52:00,82.0,-99.9,29.83,North,11,2.0,4.0,-999,-99.99,,,-99.99,,2013-05-03 22:52:00,
2013-05-03 19:02:00,82.0,-99.9,29.83,NE,55,5.0,6.0,-999,-99.99,,,-99.99,,2013-05-03 23:02:00,
2013-05-03 19:11:00,82.0,-99.9,29.83,NNE,17,4.0,6.0,-999,-99.99,,,-99.99,,2013-05-03 23:11:00,
2013-05-03 19:22:00,82.0,-99.9,29.84,NNW,337,2.0,5.0,-999,-99.99,,,-99.99,,2013-05-03 23:22:00,
2013-05-03 19:32:00,82.0,-99.9,29.83,North,7,1.0,5.0,-999,-99.99,,,-99.99,,2013-05-03 23:32:00,
2013-05-03 19:41:00,82.0,-99.9,29.83,NNE,23,3.0,6.0,-999,-99.99,,,-99.99,,2013-05-03 23:41:00,
2013-05-03 19:52:00,82.0,-99.9,29.84,WNW,301,2.0,3.0,-999,-99.99,,,-99.99,,2013-05-03 23:52:00,
2013-05-03 20:01:00,82.0,-99.9,29.84,NNE,12,1.0,5.0,-999,-99.99,,,-99.99,,2013-05-04 00:01:00,
2013-05-03 20:11:00,82.0,-99.9,29.85,NE,42,3.0,4.0,-999,-99.99,,,-99.99,,2013-05-04 00:11:00,
2013-05-03 20:23:00,82.0,-99.9,29.85,East,95,1.0,2.0,-999,-99.99,,,-99.99,,2013-05-04 00:23:00,
2013-05-03 20:32:00,82.0,-99.9,29.85,East,93,2.0,4.0,-999,-99.99,,,-99.99,,2013-05-04 00:32:00,
2013-05-03 20:42:00,82.0,-99.9,29.86,ESE,118,1.0,2.0,-999,-99.99,,,-99.99,,2013-05-04 00:42:00,
2013-05-03 20:52:00,82.0,-99.9,29.86,ESE,123,1.0,1.0,-999,-99.99,,,-99.99,,2013-05-04 00:52:00,
2013-05-03 21:01:00,82.0,-99.9,29.87,SE,125,0.0,1.0,-999,-99.99,,,-99.99,,2013-05-04 01:01:00,
2013-05-03 21:11:00,82.0,-99.9,29.87,SE,125,1.0,1.0,-999,-99.99,,,-99.99,,2013-05-04 01:11:00,
2013-05-03 21:22:00,82.0,-99.9,29.87,East,98,0.0,1.0,-999,-99.99,,,-99.99,,2013-05-04 01:22:00,
2013-05-03 21:32:00,82.0,-99.9,29.87,ESE,110,1.0,2.0,-999,-99.99,,,-99.99,,2013-05-04 01:32:00,
2013-05-03 21:42:00,82.0,-99.9,29.88,ENE,69,1.0,2.0,-999,-99.99,,,-99.99,,2013-05-04 01:42:00,
2013-05-03 21:52:00,82.0,-99.9,29.88,East,95,3.0,3.0,-999,-99.99,,,-99.99,,2013-05-04 01:52:00,
2013-05-03 22:02:00,82.0,-99.9,29.88,ESE,113,2.0,3.0,-999,-99.99,,,-99.99,,2013-05-04 02:02:00,
2013-05-03 22:11:00,81.0,-99.9,29.88,ESE,113,1.0,2.0,-999,-99.99,,,-99.99,,2013-05-04 02:11:00,
2013-05-03 22:21:00,82.0,-99.9,29.89,ESE,122,1.0,1.0,-999,-99.99,,,-99.99,,2013-05-04 02:21:00,
2013-05-03 22:32:00,82.0,-99.9,29.89,South,170,0.0,2.0,-999,-99.99,,,-99.99,,2013-05-04 02:32:00,
2013-05-03 22:42:00,82.0,-99.9,29.89,SE,127,0.0,1.0,-999,-99.99,,,-99.99,,2013-05-04 02:42:00,
2013-05-03 22:52:00,82.0,-99.9,29.89,South,182,0.0,2.0,-999,-99.99,,,-99.99,,2013-05-04 02:52:00,
2013-05-03 23:02:00,82.0,-99.9,29.89,SSW,194,1.0,1.0,-999,-99.99,,,-99.99,,2013-05-04 03:02:00,
2013-05-03 23:11:00,82.0,-99.9,29.88,SW,215,5.0,6.0,-999,-99.99,,,-99.99,,2013-05-04 03:11:00,
2013-05-03 23:22:00,81.0,-99.9,29.88,SSW,203,5.0,6.0,-999,-99.99,,,-99.99,,2013-05-04 03:22:00,
2013-05-03 23:33:00,81.0,-99.9,29.88,SSW,202,4.0,5.0,-999,-99.99,,,-99.99,,2013-05-04 03:33:00,
2013-05-03 23:43:00,81.0,-99.9,29.88,SSW,200,3.0,4.0,-999,-99.99,,,-99.99,,2013-05-04 03:43:00,
2013-05-03 23:53:00,81.0,-99.9,29.87,SSW,209,4.0,5.0,-999,-99.99,,,-99.99,,2013-05-04 03:53:00,